[[{"header":{"parameterUnit":"m.s-1","parameterCategory":1,"la1":30.2991,"la2":30.254,"lo1":-89.0895,"lo2":-89.0444,"dy":0.0017,"dx":0.0017,"nx":28,"ny":28,"refTime":"2025-07-07T03:00:00:Z","depth":0,"parameterNumber":2,"parameterNumberName":"U-component_of_WINDS"},"data":[0,0,0,0,0,0,0,0,0,0,0,0,0,0,0,0,0,0,0,0,0,0,0,0,0,0,0,0,0,0,0,0,0,0,0,0,0,0,0,0,0,0,0,0,0,0,0,0,0,0,0,0,0,0,0,0,0,0,3.8148,3.8148,0,3.8185,3.8186,3.8186,3.811,3.8107,3.8105,3.8102,3.814,3.8143,3.8146,0,0,0,0,0,0,0,0,0,0,0,0,0,3.8007,3.801,3.8148,3.8148,3.8149,3.8185,3.8186,3.8186,3.811,3.8107,3.8104,3.8101,3.8139,3.8143,3.8147,0,0,0,0,0,0,0,0,0,0,0,0,0,3.8059,3.8011,3.8148,3.8115,3.8112,3.8185,3.8186,3.8186,3.8111,3.8107,3.8103,3.81,3.8137,3.8142,3.8147,3.8253,0,0,3.8162,3.8164,0,0,0,0,0,0,0,0,3.8056,3.8064,3.8119,3.8117,3.8115,3.8139,3.815,3.8208,3.8112,3.8111,3.8102,3.8098,3.8142,3.8147,3.8162,3.8254,3.8256,3.8163,3.8166,3.8168,3.8169,0,0,0,0,0,0,0,3.8053,3.8062,3.8162,3.812,3.8117,3.8098,3.8101,3.8161,3.8147,3.8111,3.8106,3.8111,3.814,3.8157,3.8162,3.8256,3.8163,3.8167,3.817,3.8172,3.8433,3.8436,0,0,0,0,0,0,3.8054,3.806,3.8161,3.8163,3.8076,3.8103,3.8107,3.8135,3.8146,3.8145,3.8114,3.8107,3.8151,3.8157,3.8163,3.8283,3.8168,3.8172,3.8175,3.8429,3.8434,3.8438,0,0,0,0,0,0,3.8051,3.8063,3.816,3.811,3.8121,3.811,3.8142,3.8138,3.8154,3.8149,3.8146,3.8134,3.8148,3.8156,3.823,3.8284,3.8175,3.8179,3.8424,3.843,3.8436,3.8528,0,0,0,0,0,0,3.8047,3.8063,3.8104,3.8112,3.8124,3.8227,3.8145,3.8141,3.8163,3.8155,3.8167,3.8165,3.8146,3.8223,3.8235,3.8289,3.8183,3.8419,3.8427,3.8434,3.852,3.8536,3.855,0,0,0,0,0,3.8042,3.8129,3.8106,3.8119,3.8175,3.823,3.8237,3.8213,3.8168,3.8208,3.8204,3.8165,3.8277,3.8231,3.8244,3.83,3.8416,3.8425,3.8433,3.8513,3.8533,3.855,0,0,0,0,0,0,3.8128,3.8129,3.8104,3.8196,3.8213,3.8217,3.8267,3.8236,3.8266,3.8257,3.8226,3.8229,3.8308,3.8312,3.8261,3.8401,3.8338,3.835,3.8395,3.8413,3.8428,3.8424,3.8187,0,0,0,0,0,3.8157,3.8203,3.8202,3.8283,3.8293,3.8279,3.8302,3.8282,3.8299,3.8305,3.8307,3.8324,3.8363,3.8389,3.8425,3.8521,3.852,3.8566,3.8581,3.8594,3.8603,3.865,3.8669,3.8467,3.8467,3.8467,0,0,3.8219,3.8225,3.8256,3.83,3.8311,3.8357,3.8285,3.8338,3.8371,3.8313,3.8381,3.8384,3.8401,3.8485,3.8523,3.8491,3.8659,3.8605,3.8615,3.8617,3.8661,3.868,3.8697,3.8473,3.8472,3.8471,0,0,3.8352,3.8364,3.843,3.8443,3.846,3.845,3.8466,3.8474,3.8473,3.8542,3.8498,3.8537,3.8606,3.8618,3.8634,3.8771,3.8734,3.8784,3.8861,3.8907,3.8923,3.8937,3.8982,3.8999,3.8794,3.8794,3.8794,0,3.8426,3.8494,3.8469,3.8523,3.8542,3.8492,3.8558,3.8571,3.86,3.8613,3.8578,3.8661,3.8669,3.8753,3.8787,3.8803,3.8817,3.878,3.8923,3.8937,3.8949,3.8991,3.9009,3.88,3.8799,3.8798,3.8798,0,3.8582,3.863,3.8681,3.8708,3.8734,3.8794,3.8776,3.8805,3.8783,3.8776,3.8844,3.8853,3.8887,3.8907,3.8886,3.8987,3.8967,3.8929,3.8864,3.8974,3.9013,3.903,3.8807,3.8806,3.8804,3.8803,0,0,3.8769,3.878,3.8799,3.8809,3.8824,3.886,3.8918,3.8951,3.8974,3.8996,3.9041,3.9099,3.9063,3.908,3.9061,3.9102,3.9205,3.9058,3.9057,3.9081,3.9312,3.9338,3.9357,3.9182,3.9185,3.9188,3.9309,0,3.8898,3.8995,3.8973,3.9068,3.911,3.9063,3.9112,3.9126,3.9121,3.9155,3.9149,3.9189,3.9141,3.915,3.9189,3.9184,3.925,3.9176,3.9221,3.9222,3.9213,3.9378,3.9406,3.952,3.9325,3.9327,3.9329,0,3.9062,3.9087,3.9187,3.9192,3.9208,3.9253,3.928,3.9314,3.9328,3.9321,3.934,3.9312,3.9367,3.9305,3.9378,3.9328,3.9345,3.9345,3.9349,3.9349,3.9279,3.9378,3.9556,3.9572,3.9354,3.9352,3.935,0,3.9182,3.9243,3.9308,3.9319,3.9328,3.936,3.9365,3.9376,3.9396,3.942,3.9432,3.9463,3.9479,3.9503,3.9483,3.9441,3.9558,3.9495,3.9551,3.9551,3.9574,3.9572,3.9753,3.9593,3.9593,3.9593,3.9592,0,3.9326,3.9388,3.9362,3.9402,3.9469,3.9443,3.9509,3.9509,3.9518,3.9556,3.9519,3.9555,3.9529,3.9563,3.9548,3.9608,3.9617,3.9611,3.9605,3.9612,3.9612,3.962,3.9609,3.9597,3.9596,3.9595,3.9595,0,3.9471,3.9457,3.9525,3.9527,3.9529,3.9578,3.9579,3.9616,3.9608,3.9656,3.9666,3.9654,3.9691,3.9675,3.9715,3.9705,3.9781,3.9767,3.9776,3.977,3.9825,3.9818,4.0014,4.0036,3.9866,3.9868,3.9869,0,3.9562,3.9607,3.9614,3.9636,3.9644,3.9681,3.9701,3.9677,3.97,3.9718,3.9751,3.9786,3.9811,3.9874,3.9867,3.9897,3.9881,3.9948,3.9885,3.9889,3.9876,3.9872,3.9875,3.9959,3.9961,3.9962,3.9964,0,3.9722,3.9712,3.9743,3.977,3.9795,3.9816,3.9834,3.9854,3.9831,3.9858,3.9895,3.9915,3.9955,3.9988,4.0014,4.0018,3.9986,3.9984,3.9997,4.0002,4.0003,3.9999,3.9805,3.9978,3.9977,3.9976,3.9975,3.9975,3.9839,3.9876,3.9885,3.992,3.993,3.9947,3.998,3.9976,4.0007,4.0036,4.0021,4.0064,4.0074,4.0105,4.0114,4.0146,4.012,4.0141,4.0145,4.0149,4.0154,4.0002,4.0151,4.0151,4.0151,4.015,4.015,0,3.9994,3.9997,4.0029,4.0054,4.008,4.0049,4.0066,4.009,4.0128,4.0141,4.0166,4.0208,4.024,4.0236,4.0265,4.0291,4.0277,4.0299,4.0294,4.0295,4.0179,4.0162,4.031,4.031,4.031,4.031,4.031,4.031,4.0077,4.0136,4.0127,4.019,4.0193,4.0234,4.0246,4.0261,4.027,4.0318,4.0344,4.0341,4.0347,4.0375,4.0402,4.04,4.0411,4.0437,4.043,4.032,4.0304,4.0289,4.0272,4.0441,4.0441,4.0543,4.0544,4.0544]},{"header":{"parameterUnit":"m.s-1","parameterCategory":1,"la1":30.2991,"la2":30.254,"lo1":-89.0895,"lo2":-89.0444,"dy":0.0017,"dx":0.0017,"nx":28,"ny":28,"refTime":"2025-07-07T03:00:00:Z","depth":0,"parameterNumber":3,"parameterNumberName":"V-component_of_WINDS"},"data":[0,0,0,0,0,0,0,0,0,0,0,0,0,0,0,0,0,0,0,0,0,0,0,0,0,0,0,0,0,0,0,0,0,0,0,0,0,0,0,0,0,0,0,0,0,0,0,0,0,0,0,0,0,0,0,0,0,0,3.4359,3.436,0,3.4401,3.4402,3.4402,3.4367,3.4365,3.4364,3.4363,3.4404,3.4406,3.4409,0,0,0,0,0,0,0,0,0,0,0,0,0,3.4245,3.4247,3.4359,3.436,3.436,3.4401,3.4402,3.4402,3.4367,3.4365,3.4364,3.4362,3.4403,3.4406,3.4409,0,0,0,0,0,0,0,0,0,0,0,0,0,3.4291,3.4248,3.4359,3.4348,3.4347,3.4401,3.4402,3.4403,3.4367,3.4365,3.4363,3.4361,3.4402,3.4406,3.441,3.4477,0,0,3.4421,3.4422,0,0,0,0,0,0,0,0,3.4289,3.4296,3.4349,3.4348,3.4348,3.4377,3.4377,3.4427,3.4368,3.436,3.4362,3.436,3.4397,3.4401,3.4413,3.4479,3.448,3.4421,3.4423,3.4425,3.4426,0,0,0,0,0,0,0,3.4285,3.4293,3.4376,3.435,3.4349,3.4339,3.4343,3.4386,3.439,3.436,3.4358,3.4363,3.4396,3.441,3.4414,3.4481,3.4421,3.4424,3.4427,3.4428,3.46,3.4602,0,0,0,0,0,0,3.4284,3.4291,3.4374,3.4377,3.4312,3.4343,3.4348,3.437,3.4389,3.439,3.4365,3.4362,3.4405,3.441,3.4415,3.4493,3.4425,3.4428,3.4431,3.4598,3.46,3.4603,0,0,0,0,0,0,3.4281,3.4292,3.4373,3.4333,3.4343,3.4347,3.4372,3.4372,3.4385,3.4393,3.4393,3.4379,3.4403,3.441,3.4461,3.4494,3.443,3.4434,3.4595,3.4599,3.4602,3.465,0,0,0,0,0,0,3.4278,3.4291,3.4318,3.4334,3.4345,3.4419,3.4374,3.4374,3.4392,3.4388,3.4406,3.4407,3.4402,3.4456,3.4465,3.4498,3.4436,3.4592,3.4596,3.4601,3.4646,3.4655,3.4663,0,0,0,0,0,3.4274,3.433,3.4319,3.4329,3.4379,3.4421,3.4427,3.4421,3.4395,3.4421,3.4425,3.4406,3.4489,3.4461,3.4471,3.4506,3.459,3.4595,3.46,3.4642,3.4653,3.4663,0,0,0,0,0,0,3.4317,3.4332,3.432,3.4383,3.4401,3.4415,3.4448,3.4433,3.4459,3.4453,3.4443,3.4448,3.4501,3.4509,3.4477,3.457,3.4535,3.4543,3.4563,3.4574,3.4582,3.4579,3.444,0,0,0,0,0,3.4334,3.4368,3.4379,3.4433,3.4443,3.4444,3.4462,3.4455,3.4473,3.448,3.4489,3.4506,3.4536,3.4555,3.4583,3.4647,3.4649,3.4675,3.4684,3.4691,3.4697,3.4728,3.4739,3.462,3.462,3.462,0,0,3.4369,3.4381,3.4403,3.4442,3.4455,3.4489,3.445,3.4489,3.4513,3.4486,3.4534,3.4541,3.4559,3.4616,3.4641,3.4624,3.473,3.4698,3.4703,3.4705,3.4735,3.4746,3.4756,3.4624,3.4623,3.4623,0,0,3.4449,3.4463,3.4508,3.4522,3.4542,3.4542,3.4553,3.4569,3.4572,3.462,3.4599,3.4628,3.468,3.4693,3.4707,3.479,3.4772,3.4799,3.4843,3.4874,3.4883,3.4891,3.4919,3.4929,3.4805,3.4806,3.4806,0,3.449,3.4541,3.4533,3.4572,3.4589,3.4566,3.461,3.4623,3.4652,3.4663,3.4643,3.4706,3.4717,3.4775,3.4795,3.4808,3.4818,3.4797,3.4883,3.4891,3.4898,3.4924,3.4935,3.4809,3.4808,3.4808,3.4808,0,3.4589,3.4624,3.4658,3.4685,3.4705,3.4747,3.4744,3.4766,3.4756,3.4758,3.4806,3.4818,3.4847,3.486,3.4852,3.4916,3.4905,3.4884,3.4848,3.4913,3.4937,3.4947,3.4813,3.4812,3.4811,3.481,0,0,3.4698,3.4719,3.4731,3.4742,3.4761,3.4788,3.4827,3.4855,3.4873,3.4892,3.4924,3.4967,3.4947,3.4963,3.4956,3.4983,3.5044,3.4959,3.4959,3.4972,3.5113,3.5127,3.5139,3.5033,3.5035,3.5037,3.511,0,3.4777,3.4846,3.4839,3.4904,3.4935,3.4913,3.4947,3.4961,3.4964,3.4989,3.4991,3.5021,3.4994,3.5003,3.5029,3.5032,3.5072,3.5026,3.5061,3.5062,3.5055,3.5151,3.5167,3.5236,3.512,3.5122,3.5123,0,3.488,3.4902,3.497,3.4982,3.4994,3.5025,3.5049,3.5074,3.509,3.5089,3.5105,3.5093,3.513,3.5095,3.5145,3.5114,3.5128,3.5131,3.5134,3.5135,3.5095,3.5154,3.5258,3.5268,3.5138,3.5137,3.5136,0,3.4949,3.4996,3.5042,3.5052,3.5068,3.509,3.5098,3.5111,3.5127,3.5148,3.5158,3.5182,3.5196,3.5214,3.5208,3.5183,3.5259,3.5224,3.5258,3.5258,3.5274,3.5273,3.538,3.5286,3.5286,3.5286,3.5285,0,3.5037,3.5079,3.5073,3.5102,3.5147,3.5138,3.5183,3.5187,3.5199,3.5226,3.5209,3.5234,3.5226,3.5251,3.5246,3.5287,3.5294,3.5293,3.5291,3.5294,3.5293,3.5301,3.5296,3.5288,3.5288,3.5287,3.5287,0,3.5123,3.5121,3.5169,3.5179,3.5183,3.5216,3.5224,3.5249,3.5249,3.5284,3.5292,3.5292,3.532,3.5316,3.5348,3.5344,3.5395,3.5388,3.539,3.5387,3.5421,3.5417,3.5535,3.5549,3.5448,3.5449,3.545,0,3.5179,3.521,3.5223,3.524,3.5249,3.5277,3.5293,3.5285,3.5302,3.532,3.5343,3.537,3.539,3.5436,3.5438,3.5462,3.5454,3.5494,3.5458,3.5458,3.5452,3.5449,3.5451,3.5501,3.5502,3.5503,3.5504,0,3.5277,3.5273,3.5298,3.5321,3.534,3.5358,3.5374,3.5389,3.5382,3.5402,3.543,3.5447,3.5478,3.5504,3.5525,3.5532,3.5516,3.5515,3.5524,3.5526,3.5525,3.5523,3.5407,3.5512,3.5511,3.5511,3.551,3.551,3.5347,3.5373,3.5385,3.5412,3.5423,3.5438,3.5461,3.5464,3.5488,3.5512,3.5506,3.5538,3.555,3.5577,3.5586,3.5609,3.5594,3.5608,3.5611,3.5614,3.5616,3.5522,3.5613,3.5613,3.5613,3.5613,3.5613,0,3.5442,3.5449,3.5473,3.5496,3.5516,3.55,3.5516,3.5534,3.5562,3.5575,3.5595,3.5626,3.5651,3.5654,3.5677,3.5695,3.5688,3.5701,3.5699,3.57,3.563,3.5619,3.5706,3.5706,3.5706,3.5706,3.5706,3.5706,3.5494,3.5535,3.5533,3.5579,3.5586,3.5616,3.5626,3.5639,3.5649,3.5685,3.5705,3.5707,3.5715,3.5738,3.5759,3.5759,3.5768,3.5783,3.578,3.5714,3.5705,3.5696,3.5686,3.5785,3.5786,3.5848,3.5849,3.5849]}]]